Kirksville, MO

4:39 PM CDT on May 22, 2018 (GMT -0500)
Kirksville Regional

Weather History for KIRK - November, 2011

Change the Weather History Date:

Wednesday, November 2, 2011

  Actual Average Record
Temperature  
Mean Temperature 51 °F 47 °F  
Max Temperature 63 °F 57 °F 79 °F (1938)
Min Temperature 39 °F 37 °F 12 °F (1966)
Degree Days  
Heating Degree Days 14 18  
Month to date heating degree days 22 36  
Since 1 July heating degree days 496 525  
Cooling Degree Days 0 0  
Month to date cooling degree days 0 0  
Year to date cooling degree days 1197 939  
Moisture  
Dew Point 39 °F    
Average Humidity 68    
Maximum Humidity 93    
Minimum Humidity 43    
Precipitation  
Precipitation 0.96 in 0.12 in 1.37 in (1992)
Month to date precipitation 0.96 0.24  
Year to date precipitation 30.39 35.08  
Sea Level Pressure  
Sea Level Pressure 30.01 in    
Wind  
Wind Speed 13 mph (North)    
Max Wind Speed 26 mph    
Max Gust Speed 33 mph    
Visibility 7 miles    
Events Rain    
T = Trace of Precipitation, MM = Missing Value Source: NWS Daily Summary

Daily Weather History Graph

Daily Weather History Graph

Search for Another Location

Airport or City:

Astronomy

Nov. 02, 2011 Rise Set
Actual Time 7:40 AM CDT 6:06 PM CDT
Civil Twilight 7:12 AM CDT 6:34 PM CDT
Nautical Twilight 6:39 AM CDT 7:06 PM CDT
Astronomical Twilight 6:08 AM CDT 7:38 PM CDT
Moon 2:00 PM CDT (11/2) No Moon Set
Length of Visible Light 11h 22m
Length of Day
10h 26m
Waxing Crescent, 50% of the Moon is Illuminated
Nov 2
Waxing Crescent
Nov 10
Full
Nov 18
Last Quarter
Nov 25
New
Dec 2
First Quarter

Hourly Weather History & Observations

Time (CDT) Temp. Windchill Dew Point Humidity Pressure Visibility Wind Dir Wind Speed Gust Speed Precip Events Conditions
12:55 AM 60.8 °F - 39.2 °F 45% 29.99 in 10.0 mi South 11.5 mph - N/A   Mostly Cloudy
1:55 AM 61.0 °F - 39.0 °F 44% 29.99 in 10.0 mi South 15.0 mph 21.9 mph N/A   Overcast
2:55 AM 59.0 °F - 37.9 °F 46% 29.99 in 10.0 mi South 12.7 mph - N/A   Mostly Cloudy
3:55 AM 57.9 °F - 37.0 °F 46% 29.99 in 10.0 mi SSW 11.5 mph - N/A   Mostly Cloudy
4:55 AM 57.9 °F - 37.0 °F 46% 30.00 in 10.0 mi SSW 11.5 mph - N/A   Mostly Cloudy
5:55 AM 55.9 °F - 37.0 °F 49% 30.01 in 10.0 mi SSW 9.2 mph - N/A   Mostly Cloudy
6:55 AM 55.4 °F - 37.4 °F 51% 29.99 in 10.0 mi South 9.2 mph - N/A   Partly Cloudy
7:55 AM 55.9 °F - 37.9 °F 51% 30.02 in 10.0 mi SSW 6.9 mph - N/A   Mostly Cloudy
8:55 AM 55.9 °F - 39.0 °F 53% 30.04 in 10.0 mi SSW 5.8 mph - N/A   Overcast
9:55 AM 57.9 °F - 39.0 °F 49% 30.02 in 10.0 mi South 6.9 mph - N/A   Scattered Clouds
10:55 AM 57.9 °F - 41.0 °F 53% 30.01 in 10.0 mi SSE 4.6 mph - N/A   Mostly Cloudy
11:55 AM 62.1 °F - 39.9 °F 44% 29.99 in 10.0 mi SW 6.9 mph - N/A   Overcast
12:55 PM 61.0 °F - 41.0 °F 48% 29.97 in 10.0 mi WSW 6.9 mph - N/A   Mostly Cloudy
1:55 PM 57.9 °F - 45.0 °F 62% 29.97 in 10.0 mi SW 3.5 mph - 0.00 in Rain Light Rain
2:55 PM 48.9 °F - 44.1 °F 83% 29.99 in 8.0 mi North 13.8 mph 19.6 mph 0.02 in Rain Light Rain
3:55 PM 46.9 °F - 44.1 °F 90% 30.01 in 6.0 mi North 13.8 mph 18.4 mph 0.00 in   Overcast
4:28 PM 46.4 °F 40.4 °F 44.6 °F 93% 30.00 in 7.0 mi North 13.8 mph 20.7 mph 0.00 in   Overcast
4:55 PM 46.9 °F - 44.1 °F 90% 30.01 in 7.0 mi North 15.0 mph - 0.00 in   Overcast
5:55 PM 44.1 °F 35.9 °F 41.0 °F 89% 30.00 in 10.0 mi North 19.6 mph 25.3 mph N/A   Overcast
6:55 PM 43.0 °F 35.4 °F 39.9 °F 89% 29.99 in 10.0 mi North 16.1 mph 29.9 mph 0.00 in   Overcast
7:55 PM 39.9 °F 31.1 °F 37.9 °F 93% 30.02 in 10.0 mi North 17.3 mph 27.6 mph 0.02 in Rain Light Rain
8:15 PM 39.2 °F 29.0 °F 37.4 °F 93% 29.98 in 5.0 mi NNE 21.9 mph 31.1 mph 0.04 in Rain Rain
8:27 PM 39.2 °F 28.7 °F 37.4 °F 93% 29.99 in 5.0 mi North 23.0 mph 32.2 mph 0.07 in Rain Light Rain
8:37 PM 39.2 °F 29.8 °F 37.4 °F 93% 30.01 in 2.5 mi North 18.4 mph 25.3 mph 0.12 in Rain Heavy Rain
8:55 PM 39.0 °F 29.3 °F 37.0 °F 93% 30.03 in 2.5 mi North 19.6 mph 28.8 mph 0.25 in Rain Heavy Rain
8:57 PM 39.2 °F 29.6 °F 37.4 °F 93% 30.01 in 2.5 mi North 19.6 mph 28.8 mph 0.01 in Rain Heavy Rain
9:10 PM 39.2 °F 32.0 °F 37.4 °F 93% 30.02 in 3.0 mi North 11.5 mph 28.8 mph 0.08 in Rain Rain
9:19 PM 39.2 °F 31.6 °F 37.4 °F 93% 30.03 in 4.0 mi North 12.7 mph 20.7 mph 0.12 in Rain Heavy Rain
9:26 PM 39.2 °F 30.8 °F 37.4 °F 93% 30.03 in 2.5 mi NNE 15.0 mph 20.7 mph 0.17 in Rain Heavy Rain
9:40 PM 39.2 °F 29.3 °F 37.4 °F 93% 30.04 in 3.0 mi North 20.7 mph 27.6 mph 0.25 in Rain Rain
9:55 PM 39.2 °F 28.7 °F 37.4 °F 93% 30.02 in 2.5 mi NNE 23.0 mph 27.6 mph N/A Rain Heavy Rain
10:02 PM 39.2 °F 29.8 °F 37.4 °F 93% 30.01 in 3.0 mi NNE 18.4 mph 31.1 mph 0.04 in Rain Rain
10:37 PM 39.2 °F 28.7 °F 37.4 °F 93% 30.01 in 7.0 mi NNE 23.0 mph 29.9 mph 0.10 in Rain Light Rain
10:55 PM 39.0 °F 28.8 °F 37.0 °F 93% 30.04 in 7.0 mi NNE 21.9 mph 28.8 mph 0.13 in Rain Light Rain
11:55 PM 39.0 °F 29.3 °F 37.0 °F 93% 30.00 in 9.0 mi NNE 19.6 mph 28.8 mph 0.11 in Rain Light Rain